Regional Weather Roundup
Issued by NWS State College, PA

Home | Current Version | Previous Version | Graphics & Text | Print | Product List | Glossary On
Versions: 1 2 3 4 5 6 7 8 9 10 11 12 13 14 15 16 17 18 19 20 21 22 23 24 25 26 27 28 29 30 31 32 33 34 35 36 37 38 39 40 41 42 43 44 45 46 47 48 49 50
000
ASUS41 KCTP 290810
RWRCTP

REGIONAL WEATHER ROUNDUP
NATIONAL WEATHER SERVICE STATE COLLEGE PA
400 AM EDT FRI JUL 29 2016

Note: "fair" indicates few or no clouds below 12,000 feet with no
significant weather and/or obstructions to visibility.

* = STATION THAT DOES NOT REPORT PRECIPITATION /E.G. RAIN...SNOW...ETC/
    THUNDER OR FOG.

PAZ002>004-007>009-013>016-020>023-029>032-290900-
WESTERN PENNSYLVANIA

CITY           SKY/WX    TMP DP  RH WIND       PRES   REMARKS
ERIE           CLEAR     70  65  84 CALM      29.91S
MEADVILLE      PTCLDY    63  62  97 SW5       29.94S FOG
FRANKLIN*      CLOUDY    63  59  88 SW3       29.95S VSB<1/4
NEW CASTLE     FOG       65  65 100 CALM      29.94R VSB 1/4
BEAVER COUNTY  NOT AVBL
BUTLER*        CLOUDY    63  61  94 CALM      29.96R VSB 1/4
PITTSBURGH INT PTCLDY    66  63  90 E3        29.92S FOG
PITTSBURGH     FOG       68  66  93 CALM      29.92S VSB 1/4
INDIANA*       FOG       68  68 100 CALM      29.95F VSB 0
LATROBE        CLOUDY    66  66 100 CALM      29.92F
WASHINGTON CO* CLOUDY    68  66  94 CALM      29.93R VSB 1/4
$$

PAZ004>006-010>012-017>019-024>028-033>037-041-042-045-046-049>053-290900-
CENTRAL PENNSYLVANIA

CITY           SKY/WX    TMP DP  RH WIND       PRES   REMARKS
BRADFORD       FOG       66  65  96 NW5       29.96S VSB 1/4
DUBOIS         FOG       63  61  93 CALM      29.93F VSB 1/4
CLEARFIELD     FOG       65  63  93 CALM      29.92F VSB 1/4
JOHNSTOWN      FOG       65  63  93 NW3       29.94F VSB<1/4
ALTOONA        FOG       66  66 100 CALM      29.91F VSB 1/4
STATE COLLEGE  FOG       66  66  99 W3        29.90F VSB 1/4
WILLIAMSPORT   CLOUDY    71  65  81 CALM      29.85F
SELINSGROVE    CLOUDY    69  69 100 N5        29.87F FOG
FT INDIANTOWN  CLOUDY    71  70  98 E5        29.83F
CAPITAL CITY   LGT RAIN  74  69  85 CALM      29.83F
HARRISBURG     LGT RAIN  73  72  96 CALM      29.82F
YORK           LGT RAIN  72  71  97 N3        29.83F FOG
$$

PAZ038>040-043-044-047-048-054-055-060>062-067>071-290900-
EASTERN PENNSYLVANIA

CITY           SKY/WX    TMP DP  RH WIND       PRES   REMARKS
SCRANTON       CLOUDY    70  69  97 CALM      29.86F FOG
MOUNT POCONO   LGT RAIN  66  65  96 N3        29.91F
ALLENTOWN      RAIN      73  70  90 CALM      29.85F FOG
QUAKERTOWN*    CLOUDY    72  72 100 CALM      29.86F
READING        HVY RAIN  71  69  93 E3        29.84F FOG
LANCASTER      RAIN      69  68  96 NE8       29.83F FOG
COATESVILLE    LGT RAIN  72  70  94 N6G13     29.85F
POTTSTOWN      LGT RAIN  72  71  97 N7        29.85F FOG
BLUE BELL      CLOUDY    70  70 100 CALM      29.83S
DOYLESTOWN     LGT RAIN  70  70 100 N5        29.83F
WILLOW GROVE   NOT AVBL
NORTH PHILA    LGT RAIN  75  74  96 N7        29.83S FOG
PHILADELPHIA   CLOUDY    75  73  93 N8        29.82S FOG
$$



USA.gov is the U.S. government's official web portal to all federal, state and local government web resources and services.